Location: Kumla
(59.1265°N, 15.1401°E)
Time: 21:52:21
(UTC+01:00)

Transit 2A - Pass Details

Date: 07 December 2023
Orbit: 600 x 953 km, 66.7° (Epoch: 24 February)

Event Time Altitude Azimuth Distance (km) Brightness Sun altitude
Rises 16:32:03 0° 232° (SW) 3,095 11.2 -9.8°
Reaches altitude 10° 16:34:28 10° 233° (SW) 2,128 9.9 -10.1°
Maximum altitude 16:39:15 81° 321° (NW) 659 5.7 -10.6°
Enters shadow 16:43:00 15° 49° (NE) 1,708 7.2 -11.1°
Drops below altitude 10° 16:43:43 10° 49° (NE) 1,989 - -11.2°
Sets 16:45:55 0° 51° (NE) 2,876 - -11.4°
